#timestamp,LO_Frequency,Hit 
1501635615.3,286047063.4,N
1501635635.1,286047060.6,N
1501635636.0,286047060.6,N
1501635655.8,286047061.1,N
1501635675.7,286047064.7,N
1501635695.5,286047064.1,N
1501635715.3,286047066.4,N
1501635735.1,286047066.8,N
1501635755.9,286047063.0,N
1501635775.7,286047061.5,N
1501635795.5,286047062.6,N
1501635815.4,286047062.9,N
1501635835.2,286047059.1,N
1501635855.0,286047061.2,N
1501635855.9,286047061.2,N
1501635875.8,286047063.5,N
1501635895.6,286047063.3,N
1501635915.4,286047060.6,N
1501635935.3,286047063.0,N
1501635955.1,286047060.8,N
1501635956.0,286047060.8,N
1501635975.8,286047060.6,N
1501635995.6,286047061.4,N
1501636015.5,286047060.6,N
1501636035.3,286047063.3,N
1501636055.1,286047062.7,N
1501636075.9,286047062.5,N
1501636095.7,286047065.2,N
1501636115.5,286047062.7,N
1501636135.4,286047060.8,N
1501636155.2,286047063.2,N
1501636175.0,286047062.6,N
1501636175.9,286047062.6,N
1501636195.8,286047060.6,N
1501636215.6,286047063.4,N
1501636235.4,286047062.3,N
1501636255.3,286047062.4,N
1501636275.1,286047063.4,N
1501636276.0,286047063.4,N
1501636295.8,286047065.2,N
1501636315.7,286047066.6,N
1501636335.5,286047066.7,N
1501636355.3,286047064.2,N
1501636375.1,286047066.4,N
1501636395.9,286047064.1,N
1501636415.7,286047062.1,N
1501636435.5,286047064.9,N
1501636455.4,286047064.8,N
1501636475.2,286047062.1,N
1501636495.0,286047064.9,N
1501636495.9,286047064.9,N
1501636515.8,286047064.9,N
1501636535.6,286047064.9,N
1501636555.4,286047066.3,N
1501636575.2,286047064.6,N
1501636595.1,286047062.6,N
1501636596.0,286047062.6,N
1501636615.8,286047062.3,N
1501636635.6,286047063.5,N
1501636655.5,286047063.6,N
1501636675.3,286047061.2,N
1501636695.1,286047063.1,N
1501636715.9,286047066.8,N
1501636735.7,286047065.0,N
1501636755.5,286047063.4,N
1501636775.4,286047064.4,N
1501636795.2,286047062.2,N
1501636815.0,286047063.5,N
1501636815.9,286047063.5,N
1501636835.8,286047063.0,N
1501636855.6,286047063.1,N
1501636875.4,286047060.6,N
1501636895.2,286047061.7,N
1501636915.1,286047063.4,N
1501636916.0,286047063.4,N
1501636935.8,286047061.2,N
1501636955.6,286047061.1,N
1501636975.5,286047061.7,N
1501636995.3,286047063.3,N
1501637015.1,286047063.2,N
1501637035.9,286047059.8,N
1501637055.7,286047060.0,N
1501637075.5,286047059.1,N
1501637095.4,286047060.4,N
1501637115.2,286047061.5,N
1501637135.0,286047061.3,N
1501637135.9,286047061.3,N
1501637155.8,286047061.5,N
1501637175.6,286047060.7,N
1501637195.4,286047062.0,N
1501637215.2,286047060.0,N
1501637235.1,286047060.2,N
1501637236.0,286047060.2,N
1501637255.8,286047060.0,N
1501637275.6,286047059.6,N
1501637295.5,286047060.1,N
1501637315.3,286047060.0,N
1501637335.1,286047059.5,N
1501637355.9,286047059.9,N
1501637375.7,286047059.4,N
1501637395.5,286047061.3,N
1501637415.4,286047059.0,N
1501637435.2,286047059.1,N
1501637455.0,286047060.7,N
1501637455.9,286047060.7,N
1501637475.8,286047063.4,N
1501637495.6,286047060.5,N
1501637515.4,286047063.2,N
1501637535.3,286047062.6,N
1501637555.1,286047062.3,N
1501637556.0,286047062.3,N
1501637575.8,286047066.3,N
1501637595.6,286047066.4,N
1501637615.5,286047062.8,N
1501637635.3,286047062.3,N
1501637655.1,286047063.4,N
1501637675.9,286047062.4,N
1501637695.7,286047063.4,N
1501637715.5,286047062.0,N
1501637735.4,286047059.3,N
1501637755.2,286047065.1,N
1501637775.0,286047064.5,N
1501637775.9,286047064.5,N
1501637795.8,286047064.9,N
1501637815.6,286047062.6,N
1501637835.4,286047062.8,N
1501637855.2,286047062.4,N
1501637875.1,286047064.9,N
1501637876.0,286047064.9,N
1501637895.8,286047065.1,N
1501637915.6,286047066.4,N
1501637935.5,286047063.3,N
1501637955.3,286047062.1,N
1501637975.1,286047062.1,N
1501637995.9,286047060.5,N
1501638015.7,286047063.3,N
1501638035.5,286047064.8,N
1501638055.4,286047064.8,N
1501638075.2,286047063.9,N
1501638095.0,286047066.2,N
1501638095.9,286047066.2,N
1501638115.8,286047068.0,N
1501638135.6,286047066.8,N
1501638155.4,286047064.7,N
1501638175.3,286047064.9,N
1501638195.1,286047065.2,N
1501638196.0,286047065.2,N
1501638215.8,286047064.3,N
1501638235.6,286047066.1,N
1501638255.5,286047067.7,N
1501638275.3,286047067.7,N
1501638295.1,286047067.6,N
1501638315.9,286047065.3,N
1501638335.7,286047066.5,N
1501638355.5,286047066.3,N
1501638375.4,286047066.5,N
1501638395.2,286047062.4,N
1501638415.0,286047064.3,N
1501638415.9,286047064.3,N
1501638435.8,286047065.2,N
1501638455.6,286047064.9,N
1501638475.4,286047066.6,N
1501638495.3,286047063.8,N
1501638515.1,286047064.9,N
1501638516.0,286047064.9,N
1501638535.8,286047064.1,N
1501638555.7,286047064.0,N
1501638575.5,286047066.6,N
1501638595.3,286047063.9,N
1501638615.1,286047065.1,N
1501638635.9,286047062.9,N
1501638655.7,286047064.3,N
1501638675.5,286047063.7,N
1501638695.4,286047066.0,N
1501638715.2,286047064.2,N
1501638735.0,286047065.8,N
1501638735.9,286047065.8,N
1501638755.8,286047067.8,N
1501638775.6,286047067.3,N
1501638795.4,286047068.1,N
1501638815.3,286047065.7,N
1501638835.1,286047065.5,N
1501638836.0,286047065.5,N
1501638855.8,286047066.8,N
1501638875.6,286047066.2,N
1501638895.5,286047065.5,N
1501638915.3,286047067.8,N
1501638935.1,286047070.5,N
1501638955.9,286047067.4,N
1501638975.7,286047065.4,N
1501638995.5,286047069.0,N
1501639015.4,286047073.1,N
1501639035.2,286047070.5,N
1501639055.0,286047071.4,N
1501639055.9,286047071.4,N
1501639075.8,286047070.0,N
1501639095.6,286047068.1,N
1501639115.4,286047067.7,N
1501639135.9,286047065.5,N
1501639155.7,286047065.4,N
1501639175.6,286047066.1,N
1501639195.4,286047065.5,N
